Regional Weather Roundup
Issued by NWS

Home | Current Version | Previous Version | Graphics & Text | Print | Product List | Glossary Off
Versions: 1 2 3 4 5 6 7 8 9 10 11 12 13 14 15 16 17 18 19 20 21 22 23 24 25 26 27 28 29 30 31 32 33 34 35 36 37 38 39 40 41 42 43 44 45 46 47 48 49 50

000
ASUS43 KMKX 252159
RWRWI

WISCONSIN REGIONAL WEATHER ROUNDUP
NATIONAL WEATHER SERVICE MILWAUKEE/SULLIVAN WI
400 PM CST SUN JAN 25 2015

NOTE: "FAIR" INDICATES FEW OR NO CLOUDS BELOW 12,000 FEET WITH NO
SIGNIFICANT WEATHER AND/OR OBSTRUCTIONS TO VISIBILITY.

WIZ001-002-006>008-014>016-023>028-252300-
NORTHWEST WISCONSIN

CITY           SKY/WX    TMP DP  RH WIND       PRES   REMARKS
SUPERIOR ARPT  CLOUDY    23  14  68 E3        30.06F
ASHLAND        CLOUDY    20  10  65 N6        30.04F WCI  12
HAYWARD        CLOUDY    22   7  52 CALM      30.01F
SIREN          CLOUDY    25  12  57 NE3       30.03S
CUMBERLAND     CLOUDY    21   9  58 SE5       30.01F WCI  15
RICE LAKE      CLOUDY    22  10  60 CALM      30.04F
CHETEK         CLOUDY    22  10  60 CALM      30.04S
LADYSMITH      CLOUDY    23  10  56 CALM      30.03S
EAU CLAIRE     CLOUDY    23  10  57 E7        30.04R WCI  15
MENOMONIE      CLOUDY    26  12  55 NW3       30.05R
NEW RICHMOND   PTCLDY    23  10  57 NE6       30.04S WCI  16
OSCEOLA        PTCLDY    27  12  53 E5        30.05F WCI  21
$$

WIZ003>005-009-010-017-018-252300-
NORTH CENTRAL WISCONSIN

CITY           SKY/WX    TMP DP  RH WIND       PRES   REMARKS
MANITOWISH WTR CLOUDY    18   5  56 CALM      29.99S
ARBOR VITAE    CLOUDY    20   6  55 CALM      29.98F
WOODRUFF       CLOUDY    20   6  55 CALM      29.98F
RHINELANDER    CLOUDY    19   5  54 E5        29.99S WCI  12
EAGLE RIVER    CLOUDY    18   3  52 CALM      29.99R
LAND O LAKES   CLOUDY    19   5  54 CALM      29.99S
PHILLIPS       CLOUDY    19   7  58 N3        29.99S
TOMAHAWK       CLOUDY    21   6  51 CALM      30.01R
MEDFORD        CLOUDY    20   7  56 CALM      29.99S
MERRILL        MOCLDY    22   5  47 CALM      30.00R
$$

WIZ029-030-035-036-043>047-252300-
CENTRAL WISCONSIN

CITY           SKY/WX    TMP DP  RH WIND       PRES   REMARKS
WAUSAU         CLOUDY    20   6  55 NE5       30.00R WCI  13
MOSINEE        MOCLDY    19   9  63 N5        30.01  WCI  13
MARSHFIELD     CLOUDY    21   9  59 NE7       30.00S WCI  12
STEVENS POINT  PTCLDY    19   5  54 E3        30.02S
WAUPACA        PTCLDY    24   9  52 NE5       30.04R WCI  18
WAUTOMA        NOT AVBL
WISC RAPIDS    PTCLDY    20   5  52 E5        30.04R WCI  13
CAMP DOUGLAS   NOT AVBL
$$

WIZ011>013-019>022-031-037>040-048>050-252300-
NORTHEAST WISCONSIN

CITY           SKY/WX    TMP DP  RH WIND       PRES   REMARKS
ANTIGO         CLOUDY    18   7  60 N5        29.99R WCI  11
SHAWANO        CLEAR     23   9  53 E7        30.05S WCI  15
OCONTO         CLEAR     19   8  61 E8        30.06R WCI   9
STURGEON BAY   MOCLDY    18   9  68 N10       30.07R WCI   6
GREEN BAY      CLEAR     20  10  65 NE16      30.05R WCI   6
MANITOWOC      MOCLDY    21  14  73 N13G18    30.03R WCI   9
APPLETON       PTCLDY    21   7  53 NE14      30.03R WCI   8
CLINTONVILLE   CLEAR     21   9  58 NE7       30.04S WCI  13
OSHKOSH        PTCLDY    21  11  65 N15       30.03R WCI   8
$$

WIZ032>034-041-042-053>061-252300-
SOUTHWEST WISCONSIN

CITY           SKY/WX    TMP DP  RH WIND       PRES   REMARKS
LA CROSSE      CLEAR     29  14  53 NE9       30.03R WCI  20
SPARTA         CLEAR     27  13  55 NE9       30.02S WCI  18
VIROQUA        CLEAR     26  15  63 N10       29.97S WCI  16
BOSCOBEL       CLEAR     28  13  53 E10G16    30.01R WCI  19
PRAIRIE DU CHI CLEAR     29  16  56 NE9       30.00R WCI  21
PLATTEVILLE    CLOUDY    24  18  77 N14       29.97R WCI  12
$$

WIZ056-057-062-063-064-067-068-252300-
SOUTH CENTRAL WISCONSIN

CITY           SKY/WX    TMP DP  RH WIND       PRES   REMARKS
REEDSBURG      PTCLDY    23  12  62 N10       30.01R WCI  12
BARABOO/DELLS  CLEAR     23  11  61 NE7G17    30.00R WCI  14
LONE ROCK      PTCLDY    25  12  58 N15       30.02R WCI  12
MINERAL POINT  CLEAR     27  14  59 N9G21     29.96R WCI  17
MADISON        PTCLDY    24  13  62 N16       29.98R WCI  11
MIDDLETON      PTCLDY    26  15  63 NE17      29.98R WCI  13
WATERTOWN      CLEAR     25   9  52 NE10G23   29.96R WCI  14
MONROE         CLEAR     27  19  74 N20G25    29.92R WCI  13
JANESVILLE     MOCLDY    28  30 100 NE14G21   29.94R WCI  17
$$

WIZ051-052-058>065-066-070>072-252300-
SOUTHEAST WISCONSIN

CITY           SKY/WX    TMP DP  RH WIND       PRES   REMARKS
MILWAUKEE      MOCLDY    25  13  60 NE18G25   29.96R WCI  11
WAUKESHA       CLEAR     21  10  63 NE16G25   29.97R WCI   7
MILWAUKEE/TIMM PTCLDY    25  12  58 N20G25    29.97R WCI  11
RACINE         PTCLDY    26  14  60 N17G25    29.96R WCI  13
BURLINGTON     PTCLDY    23  13  65 N18G25    29.93R WCI   8
KENOSHA        MOCLDY    25  15  66 NE17      29.93R WCI  12
FOND DU LAC    CLEAR     21  12  68 N17       30.02R WCI   7
SHEBOYGAN      CLEAR     22  11  62 N20G28    30.00R WCI   7
WEST BEND      CLEAR     23   9  54 NE13G23   29.97R WCI  11
JUNEAU         CLEAR     23  13  67 N13G22    29.98R WCI  11
$$

LSZ147-162-252300-
LAKE SUPERIOR

STATION/POSITION TIME  TEMP    WIND        PRES    WAVE
                       AIR SEA DIR/SP/G            HT/PER
                 (UTC) (F)     (DEG/KT/KT) (MB)    (FT/S)
DEVILS ISLAND    2100   20      70/ 11/ 12 1019.6F
PORT WING        2100   22      70/  3/  7 1018.6
SAXON HARBOR     2100   21      30/  5/  8 1018.3S
$$

LMZ867-665-643>646-252300-
LAKE MICHIGAN

STATION/POSITION TIME  TEMP    WIND        PRES    WAVE
                       AIR SEA DIR/SP/G            HT/PER
                 (UTC) (F)     (DEG/KT/KT) (MB)    (FT/S)
NORTHPORT PIER   2109   18     330/  6/ 12 1018.3S
SISTER BAY       2113   27      40/  4/  9   N/A
KEWAUNEE LAKESHO 2100   21      40/ 18/ 22 1015.9R
SHEBOYGAN LAKESH 2100   23      30/ 23/ 26 1016.5R
PORT WASHINGTON  2140   25      30/ 19/ 25 1016.3R
MILWAUKEE LAKESH 2100   25      30/ 22/ 25   N/A
KENOSHA   LAKESH 2100   25      30/ 22/ 27 1013.2R
$$

TC  - TEMPERATURE IN CELSIUS
VSB - VISIBILITY IN STATUTE MILES
WCI - WIND CHILL INDEX
HX  - HEAT INDEX




USA.gov is the U.S. government's official web portal to all federal, state and local government web resources and services.